DW3762 Weather Reports


time (UTC)temp
C
wind
direction
speed
KPH
gust
KPH
rain 1hr
cm
rain 24hr
cm
rain mn
cm
humidity
%
barometer
mb
20260503194543 29 326 1.6 11.3 0.00 0.00 0.00 43 1009.5
20260503193013 28 299 4.8 12.9 0.00 0.00 0.00 45 1009.7
20260503191511 27 79 1.6 11.3 0.00 0.00 0.00 47 1009.9
20260503190112 26 5 1.6 9.7 0.00 0.00 0.00 49 1010.1
20260503184537 25 303 4.8 9.7 0.00 0.00 0.00 52 1010.3
20260503183007 24 343 4.8 11.3 0.00 0.00 0.00 54 1010.5
20260503181601 23 308 1.6 8.0 0.00 0.00 0.00 57 1010.6
20260503180014 22 284 4.8 12.9 0.00 0.00 0.00 59 1010.8
20260503174521 21 296 0.0 9.7 0.00 0.00 0.00 63 1010.9
20260503173017 21 274 3.2 12.9 0.00 0.00 0.00 65 1011.1
20260503171513 20 335 4.8 14.5 0.00 0.00 0.00 68 1011.2
20260503160107 16 360 1.6 8.0 0.00 0.00 0.00 83 1011.6
20260503081513 13 281 0.0 1.6 0.00 0.00 0.00 87 1011.9
20260503071506 15 281 0.0 0.0 0.00 0.00 0.00 84 1012.0
20260503060109 16 231 0.0 0.0 0.00 0.00 0.00 80 1012.0
20260503054540 16 231 0.0 4.8 0.00 0.00 0.00 80 1011.9
20260503053126 16 352 0.0 3.2 0.00 0.00 0.00 79 1011.6
20260503051551 17 352 0.0 6.4 0.00 0.00 0.00 78 1011.7
20260503050011 17 29 0.0 3.2 0.00 0.00 0.00 77 1011.9
20260503044611 17 67 0.0 6.4 0.00 0.00 0.00 76 1012.1
20260503043030 17 67 3.2 8.0 0.00 0.00 0.00 75 1012.1
20260503041629 17 98 0.0 3.2 0.00 0.00 0.00 74 1011.9
20260503040051 18 98 0.0 0.0 0.00 0.00 0.00 73 1011.9
20260503034513 18 98 0.0 4.8 0.00 0.00 0.00 72 1011.8
20260503033112 18 117 1.6 4.8 0.00 0.00 0.00 72 1011.8
20260503031545 18 238 0.0 1.6 0.00 0.00 0.00 71 1011.5
20260503030013 18 238 0.0 6.4 0.00 0.00 0.00 69 1011.5
20260503024602 19 114 1.6 16.1 0.00 0.00 0.00 68 1011.5
20260503023020 20 240 4.8 14.5 0.00 0.00 0.00 67 1011.6
20260503021619 21 173 4.8 25.7 0.00 0.00 0.00 64 1011.7
20260503020040 21 191 6.4 17.7 0.00 0.00 0.00 61 1011.2
20260503014520 22 242 3.2 12.9 0.00 0.00 0.00 58 1010.7
20260503013117 23 206 1.6 6.4 0.00 0.00 0.00 55 1010.7
20260503011542 23 204 4.8 8.0 0.00 0.00 0.00 54 1010.5
20260503010007 24 289 3.2 9.7 0.00 0.00 0.00 53 1010.5
20260503004606 24 333 3.2 9.7 0.00 0.00 0.00 52 1010.6
20260503003043 25 54 1.6 11.3 0.00 0.00 0.00 52 1010.6
20260503001624 25 296 6.4 12.9 0.00 0.00 0.00 51 1010.6
20260503000050 24 258 4.8 12.9 0.00 0.00 0.00 52 1010.8
20260502234525 24 213 1.6 16.1 0.00 0.00 0.00 51 1010.9
20260502233112 23 146 3.2 9.7 0.00 0.00 0.00 53 1011.1
20260502231532 23 319 3.2 16.1 0.00 0.00 0.00 53 1011.3
20260502230130 23 323 6.4 12.9 0.00 0.00 0.00 53 1011.5
20260502224545 23 275 3.2 9.7 0.00 0.00 0.00 53 1011.7
20260502223032 23 310 4.8 14.5 0.00 0.00 0.00 53 1011.9
20260502221517 23 318 6.4 14.5 0.00 0.00 0.00 53 1012.2
20260502220018 22 58 1.6 8.0 0.00 0.00 0.00 57 1012.4
20260502214511 22 334 4.8 12.9 0.00 0.00 0.00 54 1012.6
20260502213009 22 37 3.2 9.7 0.00 0.00 0.00 55 1012.9
20260502211505 21 52 6.4 12.9 0.00 0.00 0.00 59 1013.1
20260502210006 21 310 3.2 9.7 0.00 0.00 0.00 60 1013.2
20260502204558 20 207 4.8 11.3 0.00 0.00 0.00 59 1013.7
20260502203054 19 59 1.6 8.0 0.00 0.00 0.00 65 1013.9
20260502201549 18 325 3.2 8.0 0.00 0.00 0.00 65 1014.1
20260502200051 18 280 0.0 11.3 0.00 0.00 0.00 66 1014.2